Regional Weather Roundup
Issued by NWS

Current Version | Previous Version | Text Only | Print | Product List | Glossary On
Versions: 1 2 3 4 5 6 7 8 9 10 11 12 13 14 15 16 17 18 19 20 21 22 23 24 25 26 27 28 29 30 31 32 33 34 35 36 37 38 39 40 41 42 43 44 45 46 47 48 49 50
000
ASUS46 KSEW 230110
RWRWA

WASHINGTON REGIONAL WEATHER ROUNDUP
NATIONAL WEATHER SERVICE SEATTLE WA
600 PM PDT FRI AUG 22 2014

NOTE:"FAIR" INDICATES FEW OR NO CLOUDS BELOW 12,000 FEET WITH NO
SIGNIFICANT WEATHER AND/OR OBSTRUCTIONS TO VISIBILITY.

WAZ505-507>509-230200-
SEATTLE, TACOMA, EVERETT, AND VICINITY

CITY           SKY/WX    TMP DP  RH WIND       PRES   REMARKS
EVERETT        SUNNY     69  56  62 N7        30.08R
BOEING FIELD   MOSUNNY   76  54  46 NW6       30.05R
RENTON         SUNNY     75  56  51 NW8       30.04S
SEATAC AIRPORT MOSUNNY   74  51  44 NW8       30.07S
JBLM-MCCHORD   SUNNY     75  56  52 NE2       30.06R
PUYALLUP       NOT AVBL
JBLM-FT LEWIS  SUNNY     75  55  49 N7        30.05S
TACOMA NARROWS MOSUNNY   71  54  54 NE7       30.06S
$$

WAZ001-503-506-510-514-515-230200-
NORTH INTERIOR

CITY           SKY/WX    TMP DP  RH WIND       PRES   REMARKS
BELLINGHAM     SUNNY     71  59  65 S5        30.05R
FRIDAY HARBOR  SUNNY     69  53  56 SW6       30.06S
EASTSOUND      SUNNY     68  55  64 CALM      30.03S
PORT ANGELES   SUNNY     64  52  64 W6        30.07S
NAS WHIDBEY    MOSUNNY   63  55  75 W7        30.07R
BURLINGTON     SUNNY     72  55  56 W7        30.07R
$$

WAZ020-022-039-040-504-511-512-230200-
SOUTHWEST INTERIOR

CITY           SKY/WX    TMP DP  RH WIND       PRES   REMARKS
SHELTON        SUNNY     74  54  49 SW9       30.03R
OLYMPIA        MOSUNNY   75  54  47 N8        30.05R
CHEHALIS       MOCLDY    79  61  53 NW9G15    30.04S
KELSO          PTSUNNY   75  55  50 W8        30.06R
VANCOUVER      SUNNY     79  52  38 NW14      30.00R
SCAPPOOSE, OR  MOSUNNY   79  53  40 NW8G18    30.00S
PORTLAND, OR   MOSUNNY   80  54  40 NW15      30.00S
$$

WAZ021-516-517-230200-
WASHINGTON COAST

CITY           SKY/WX    TMP DP  RH WIND       PRES   REMARKS
FORKS          SUNNY     63  56  78 SW7       30.08S
HOQUIAM        CLOUDY    59  55  87 SW10      30.10R
ASTORIA, OR    CLOUDY    62  55  77 NW13      30.09S
$$

WAZ019-023-024-040-518-519-230200-
CASCADE MOUNTAINS AND COLUMBIA GORGE

CITY           SKY/WX    TMP DP  RH WIND       PRES   REMARKS
STAMPEDE PASS  NOT AVBL
TROUTDALE, OR  SUNNY     81  51  35 VRB5      29.98S
THE DALLES, OR MOSUNNY   80  50  34 NW16      29.94R
$$

WAZ026-027-041>044-520-521-230200-
EAST SLOPES

CITY           SKY/WX    TMP DP  RH WIND       PRES   REMARKS
OMAK           CLOUDY    65  53  65 N10       30.04R
WENATCHEE      MOSUNNY   77  45  32 NW21      29.99R
ELLENSBURG     PTSUNNY   71  53  52 W16       30.02R
YAKIMA         PTSUNNY   69  57  65 S6        29.99R
$$

WAZ028-034-035-230200-
COLUMBIA BASIN

CITY           SKY/WX    TMP DP  RH WIND       PRES   REMARKS
EPHRATA        MOSUNNY   76  48  37 N26       29.97R
MOSES LAKE     PTSUNNY   82  42  24 NW16      29.96R
PASCO          MOSUNNY   83  51  33 N12       29.90R
HERMISTON, OR  MOSUNNY   79  50  36 NW8       29.92S
$$

WAZ036>038-230200-
NORTHEAST WASHINGTON

CITY           SKY/WX    TMP DP  RH WIND       PRES   REMARKS
SPOKANE GEIGER PTSUNNY   72  49  44 N15       30.01R
SPOKANE FELTS  SUNNY     73  48  41 NE7G16    30.01R
FAIRCHILD AFB  MOSUNNY   71  48  44 NE17G24   30.02R
COEURDALENE,ID MOSUNNY  N/A N/A N/A N16       30.00S
DEER PARK      MOSUNNY   68  46  45 NE13      30.04R
$$

WAZ029>033-230200-
SOUTHEAST WASHINGTON

CITY           SKY/WX    TMP DP  RH WIND       PRES   REMARKS
PULLMAN        CLOUDY    67  50  54 N13       30.00R THUNDER
LEWISTON, ID   TSTM      64  55  72 SE14G24   29.93R
WALLA WALLA    PTSUNNY   68  54  60 S8        29.94R
PENDLETON, OR  MOSUNNY   78  48  34 NW18      29.95R
$$


USA.gov is the U.S. government's official web portal to all federal, state and local government web resources and services.